View from above orbital plane
|
View from above satellite
|
Ground track
|
The orbit data is extracted from the following two-line orbital elements,
1 00059U 60013B 21015.81913175 .00000095 00000-0 51886-5 0 9995
2 00059 28.2473 207.3277 0189295 268.6180 89.2674 13.52982344975328
Epoch (UTC): | 15 January 2021 19:39:32 |
Eccentricity: | 0.0189295 |
inclination: | 28.2473° |
perigee height: | 920 km |
apogee height: | 1202 km |
right ascension of ascending node: | 207.3277° |
argument of perigee: | 268.6180° |
revolutions per day: | 13.52982344 |
mean anomaly at epoch: | 89.2674° |
orbit number at epoch: | 97532 |
The dashed part of the orbit path shows where the satellite is in the earth's shadow,
|
|